Estación Meteorológica Peña el Pijo (Robertgarden) [ 09/29/20 11:21:15 CEST ]

Fecha Hora Presion(HPa) Temp (°C) Humedad % Rocio (°C) Viento ( m/s) Direccion Lluvia 1Hora(mm) Lluvia 24H(mm) LLuvia Total(mm)
2020-Jan-07 01:09:22 1018.000 - - - - NNE     39.88
2020-Jan-07 02:10:57 1018.100 - - - - NNE     39.88
2020-Jan-07 03:09:19 1018.500 - - - - NNE     39.88
2020-Jan-07 04:09:21 1018.400 - - - - NNE     39.88
2020-Jan-07 05:09:23 1018.400 - - - - NNE     39.88
2020-Jan-07 06:09:12 1018.000 - - - - NNE     39.88
2020-Jan-07 07:09:15 1018.000 - - - - NNE     39.88
2020-Jan-07 08:09:19 1018.400 - - - - NNE     39.88
2020-Jan-07 09:08:59 1018.700 - - - - NNE     39.88
2020-Jan-07 10:09:09 1019.000 - - - - NNE     39.88
2020-Jan-07 11:09:21 1018.800 - - - - NNE     39.88
2020-Jan-07 12:08:59 1018.400 - - - - NNE     39.88
2020-Jan-07 13:08:56 1017.800 - - - - NNE     39.88
2020-Jan-07 14:09:13 1016.800 - - - - NNE     39.88
2020-Jan-07 15:09:12 1016.500 - - - - NNE     39.88
2020-Jan-07 16:09:18 1016.200 - - - - NNE     39.88
2020-Jan-07 17:09:50 1016.400 - - - - NNE     39.88
2020-Jan-07 18:09:15 1017.100 - - - - NNE     39.88
2020-Jan-07 19:09:11 1017.700 - - - - NNE     39.88
2020-Jan-07 20:09:19 1017.900 - - - - NNE     39.88
2020-Jan-07 21:09:14 1018.200 - - - - NNE     39.88
2020-Jan-07 22:09:33 1018.200 - - - - NNE     39.88
2020-Jan-07 23:09:23 1018.200 - - - - NNE     39.88

Temperatura Máxima:    Temperatura Mínima:
Presión Máxima:1019.000 Hpa    Presión Mínima:1016.200 Hpa


Volver